Regional Weather Roundup
Issued by NWS

Home | Current Version | Previous Version | Text Only | Print | Product List | Glossary Off
Versions: 1 2 3 4 5 6 7 8 9 10 11 12 13 14 15 16 17 18 19 20 21 22 23 24 25 26 27 28 29 30 31 32 33 34 35 36 37 38 39 40 41 42 43 44 45 46 47 48 49 50

000
ASUS43 KIND 210200
RWRIN

WEATHER ROUNDUP FOR INDIANA
NATIONAL WEATHER SERVICE INDIANAPOLIS IN
1000 PM EDT WED SEP 20 2017

NOTE: "FAIR" INDICATES FEW OR NO CLOUDS BELOW 12,000 FEET WITH NO
SIGNIFICANT WEATHER AND/OR OBSTRUCTIONS TO VISIBILITY.

* - STATION DOES NOT REPORT WEATHER SUCH AS PRECIPITATION OR FOG.

+ - STATION NOT QUALITY CONTROLLED BY THE NATIONAL WEATHER SERVICE.
    USE DATA WITH CAUTION...ESPECIALLY DEWPOINT AND RELATIVE
    HUMIDITY OBSERVATIONS.

INZ001>003-010>013-019-020-210300-
NORTHWEST INDIANA

CITY           SKY/WX    TMP DP  RH WIND       PRES   REMARKS
GARY /AIRPORT/ PTCLDY    84  66  54 S7        29.89R
KNOX *+        CLEAR     72  68  88 SE6       29.92R
MICHIGAN CITY+ CLEAR     79  68  69 S6        29.91S
MONTICELLO +   CLEAR     78  68  70 SE6       29.92S
RENSSELAER +   CLEAR     79  61  53 S8        29.91S

$$

LMZ046-743>745-210300-
SOUTHERN LAKE MICHIGAN

STATION/POSITION TIME  TEMP    WIND        PRES    WAVE
                       AIR SEA DIR/SP/G            HT
                 (UTC) (F)     (DEG/KT/KT) (MB)    (FT)
BURNS HARBOR     0140   82     170/  8/ 14 1012.2S
MICHIGAN CITY    0130   81     150/ 10/ 12   N/A
5NW MICH CITY    0150   75 70  170/  8/ 10   N/A     1

$$

INZ004-005-014>016-021>024-210300-
NORTH CENTRAL INDIANA

CITY           SKY/WX    TMP DP  RH WIND       PRES   REMARKS
GOSHEN         CLEAR     76  67  73 SE7       29.95R
SOUTH BEND     CLEAR     78  69  73 S10       29.93S
WARSAW +       CLEAR     73  68  83 CALM      29.95S

$$

INZ006>009-017-018-025>027-210300-
NORTHEAST INDIANA

CITY           SKY/WX    TMP DP  RH WIND       PRES   REMARKS
AUBURN +       CLEAR     72  66  83 CALM      29.98S
FORT WAYNE     CLEAR     74  67  78 SE6       29.98S
KENDALLVILLE + CLEAR     71  68  90 SE6       29.98S

$$

INZ028-029-035-036-043>045-051>053-210300-
WEST CENTRAL INDIANA

CITY           SKY/WX    TMP DP  RH WIND       PRES   REMARKS
GREENCASTLE +  CLEAR     75  68  78 S3        29.98R
LAFAYETTE      CLEAR     78  69  73 S7        29.92F
TERRE HAUTE    CLEAR     76  66  71 S6        29.95R

$$

INZ030>032-037>040-046>048-054>057-064-065-210300-
CENTRAL INDIANA

CITY           SKY/WX    TMP DP  RH WIND       PRES   REMARKS
COLUMBUS       CLEAR     75  70  83 S7        29.99S
GREENWOOD *+   CLEAR     82  74  77 S8        29.99S
INDIANAPOLIS   CLEAR     78  69  73 S12       29.97S
-EAGLE CREEK   CLEAR     80  68  66 SE6       29.97S
KOKOMO +       CLEAR     73  69  87 S8        29.97R
MT COMFORT *+    N/A    N/A N/A N/A MISG        N/A
SHELBYVILLE    CLEAR     77  69  76 S7        29.98F

$$

INZ033-034-041-042-049-050-058-059-210300-
EAST CENTRAL INDIANA

CITY           SKY/WX    TMP DP  RH WIND       PRES   REMARKS
MUNCIE         CLEAR     79  69  71 S8        29.99S
RICHMOND +     CLEAR     68  68 100 S7        30.04S

$$

INZ060-061-067>069-081>083-085>088-210300-
SOUTHWEST INDIANA

CITY           SKY/WX    TMP DP  RH WIND       PRES   REMARKS
EVANSVILLE     CLEAR     78  70  76 CALM      29.97S
HUNTINGBURG +  CLEAR     77  72  84 SE3       29.99R

$$

INZ062-063-066-070>080-084-089>092-210300-
SOUTH CENTRAL AND SOUTHEAST INDIANA

CITY           SKY/WX    TMP DP  RH WIND       PRES   REMARKS
BLOOMINGTON    CLEAR     77  68  73 S3        29.98F
MADISON *+     CLEAR     73  68  83 SE3       30.04R
SEYMOUR +      CLEAR     77  70  78 S5        30.00R

$$





USA.gov is the U.S. government's official web portal to all federal, state and local government web resources and services.